Location: Bord�res
(43.2000°N, 0.2167°W)
Time: 14:51:24
(UTC+00:00)

Ariane Rocket - Pass Details

Date: 03 March 2021
Orbit: 759 x 771 km, 98.7° (Epoch: 20 April)

Event Time Altitude Azimuth Distance (km) Brightness Sun altitude
Exits shadow 20:22:14 55° 211° (SSW) 920 3.3 -27.7°
Maximum altitude 20:23:05 65° 258° (WSW) 847 3.3 -27.9°
Drops below altitude 10° 20:28:10 10° 340° (NNW) 2,322 5.9 -28.8°
Sets 20:30:30 0° 344° (NNW) 3,252 6.7 -29.2°
